Index of /20260425/WXO-DD/model_rdps/10km/00/049
Name Last modified Size Description
Parent Directory -
20260425T00Z_MSC_RDPS_AbsoluteVorticity_IsbL-0250_RLatLon0.09_PT049H.grib2 2026-04-25 02:59 609K
20260425T00Z_MSC_RDPS_AbsoluteVorticity_IsbL-0500_RLatLon0.09_PT049H.grib2 2026-04-25 02:59 572K
20260425T00Z_MSC_RDPS_AbsoluteVorticity_IsbL-0700_RLatLon0.09_PT049H.grib2 2026-04-25 02:59 623K
20260425T00Z_MSC_RDPS_AbsoluteVorticity_IsbL-0850_RLatLon0.09_PT049H.grib2 2026-04-25 02:59 780K
20260425T00Z_MSC_RDPS_AirTemp_AGL-120m_RLatLon0.09_PT049H.grib2 2026-04-25 02:59 389K
20260425T00Z_MSC_RDPS_AirTemp_AGL-2m_RLatLon0.09_PT049H.grib2 2026-04-25 02:59 629K
20260425T00Z_MSC_RDPS_AirTemp_AGL-40m_RLatLon0.09_PT049H.grib2 2026-04-25 02:59 401K
20260425T00Z_MSC_RDPS_AirTemp_AGL-80m_RLatLon0.09_PT049H.grib2 2026-04-25 02:59 394K
20260425T00Z_MSC_RDPS_AirTemp_IsbL-0001_RLatLon0.09_PT049H.grib2 2026-04-25 02:59 257K
20260425T00Z_MSC_RDPS_AirTemp_IsbL-0005_RLatLon0.09_PT049H.grib2 2026-04-25 02:59 294K
20260425T00Z_MSC_RDPS_AirTemp_IsbL-0010_RLatLon0.09_PT049H.grib2 2026-04-25 02:59 309K
20260425T00Z_MSC_RDPS_AirTemp_IsbL-0020_RLatLon0.09_PT049H.grib2 2026-04-25 02:59 326K
20260425T00Z_MSC_RDPS_AirTemp_IsbL-0030_RLatLon0.09_PT049H.grib2 2026-04-25 02:59 347K
20260425T00Z_MSC_RDPS_AirTemp_IsbL-0050_RLatLon0.09_PT049H.grib2 2026-04-25 02:59 323K
20260425T00Z_MSC_RDPS_AirTemp_IsbL-0100_RLatLon0.09_PT049H.grib2 2026-04-25 02:59 424K
20260425T00Z_MSC_RDPS_AirTemp_IsbL-0150_RLatLon0.09_PT049H.grib2 2026-04-25 02:59 419K
20260425T00Z_MSC_RDPS_AirTemp_IsbL-0175_RLatLon0.09_PT049H.grib2 2026-04-25 02:59 412K
20260425T00Z_MSC_RDPS_AirTemp_IsbL-0200_RLatLon0.09_PT049H.grib2 2026-04-25 02:59 420K
20260425T00Z_MSC_RDPS_AirTemp_IsbL-0225_RLatLon0.09_PT049H.grib2 2026-04-25 02:59 423K
20260425T00Z_MSC_RDPS_AirTemp_IsbL-0250_RLatLon0.09_PT049H.grib2 2026-04-25 02:59 428K
20260425T00Z_MSC_RDPS_AirTemp_IsbL-0275_RLatLon0.09_PT049H.grib2 2026-04-25 02:59 406K
20260425T00Z_MSC_RDPS_AirTemp_IsbL-0300_RLatLon0.09_PT049H.grib2 2026-04-25 02:59 412K
20260425T00Z_MSC_RDPS_AirTemp_IsbL-0350_RLatLon0.09_PT049H.grib2 2026-04-25 02:59 424K
20260425T00Z_MSC_RDPS_AirTemp_IsbL-0400_RLatLon0.09_PT049H.grib2 2026-04-25 02:59 426K
20260425T00Z_MSC_RDPS_AirTemp_IsbL-0450_RLatLon0.09_PT049H.grib2 2026-04-25 02:59 434K
20260425T00Z_MSC_RDPS_AirTemp_IsbL-0500_RLatLon0.09_PT049H.grib2 2026-04-25 02:59 412K
20260425T00Z_MSC_RDPS_AirTemp_IsbL-0550_RLatLon0.09_PT049H.grib2 2026-04-25 02:59 432K
20260425T00Z_MSC_RDPS_AirTemp_IsbL-0600_RLatLon0.09_PT049H.grib2 2026-04-25 02:59 448K
20260425T00Z_MSC_RDPS_AirTemp_IsbL-0650_RLatLon0.09_PT049H.grib2 2026-04-25 02:59 460K
20260425T00Z_MSC_RDPS_AirTemp_IsbL-0700_RLatLon0.09_PT049H.grib2 2026-04-25 02:59 378K
20260425T00Z_MSC_RDPS_AirTemp_IsbL-0750_RLatLon0.09_PT049H.grib2 2026-04-25 02:59 410K
20260425T00Z_MSC_RDPS_AirTemp_IsbL-0800_RLatLon0.09_PT049H.grib2 2026-04-25 02:59 466K
20260425T00Z_MSC_RDPS_AirTemp_IsbL-0850_RLatLon0.09_PT049H.grib2 2026-04-25 02:59 507K
20260425T00Z_MSC_RDPS_AirTemp_IsbL-0875_RLatLon0.09_PT049H.grib2 2026-04-25 02:59 521K
20260425T00Z_MSC_RDPS_AirTemp_IsbL-0900_RLatLon0.09_PT049H.grib2 2026-04-25 02:59 527K
20260425T00Z_MSC_RDPS_AirTemp_IsbL-0925_RLatLon0.09_PT049H.grib2 2026-04-25 02:59 526K
20260425T00Z_MSC_RDPS_AirTemp_IsbL-0950_RLatLon0.09_PT049H.grib2 2026-04-25 02:59 524K
20260425T00Z_MSC_RDPS_AirTemp_IsbL-0970_RLatLon0.09_PT049H.grib2 2026-04-25 02:59 524K
20260425T00Z_MSC_RDPS_AirTemp_IsbL-0985_RLatLon0.09_PT049H.grib2 2026-04-25 02:59 521K
20260425T00Z_MSC_RDPS_AirTemp_IsbL-1000_RLatLon0.09_PT049H.grib2 2026-04-25 02:59 504K
20260425T00Z_MSC_RDPS_AirTemp_IsbL-1015_RLatLon0.09_PT049H.grib2 2026-04-25 02:59 499K
20260425T00Z_MSC_RDPS_Albedo_Sfc_RLatLon0.09_PT049H.grib2 2026-04-25 02:59 164K
20260425T00Z_MSC_RDPS_CAPE_Sfc_RLatLon0.09_PT049H.grib2 2026-04-25 02:59 1.8M
20260425T00Z_MSC_RDPS_CIN_Sfc_RLatLon0.09_PT049H.grib2 2026-04-25 02:59 1.3M
20260425T00Z_MSC_RDPS_CloudWater_EAtm_RLatLon0.09_PT049H.grib2 2026-04-25 02:59 221K
20260425T00Z_MSC_RDPS_ConvectivePrecip-Accum_Sfc_RLatLon0.09_PT049H.grib2 2026-04-25 02:59 1.1M
20260425T00Z_MSC_RDPS_DewPointDepression_AGL-2m_RLatLon0.09_PT049H.grib2 2026-04-25 02:59 404K
20260425T00Z_MSC_RDPS_DewPointDepression_IsbL-0001_RLatLon0.09_PT049H.grib2 2026-04-25 02:59 193
20260425T00Z_MSC_RDPS_DewPointDepression_IsbL-0005_RLatLon0.09_PT049H.grib2 2026-04-25 02:59 193
20260425T00Z_MSC_RDPS_DewPointDepression_IsbL-0010_RLatLon0.09_PT049H.grib2 2026-04-25 02:59 193
20260425T00Z_MSC_RDPS_DewPointDepression_IsbL-0020_RLatLon0.09_PT049H.grib2 2026-04-25 02:59 193
20260425T00Z_MSC_RDPS_DewPointDepression_IsbL-0030_RLatLon0.09_PT049H.grib2 2026-04-25 02:59 193
20260425T00Z_MSC_RDPS_DewPointDepression_IsbL-0050_RLatLon0.09_PT049H.grib2 2026-04-25 02:59 90K
20260425T00Z_MSC_RDPS_DewPointDepression_IsbL-0100_RLatLon0.09_PT049H.grib2 2026-04-25 02:59 127K
20260425T00Z_MSC_RDPS_DewPointDepression_IsbL-0150_RLatLon0.09_PT049H.grib2 2026-04-25 02:59 150K
20260425T00Z_MSC_RDPS_DewPointDepression_IsbL-0175_RLatLon0.09_PT049H.grib2 2026-04-25 02:59 192K
20260425T00Z_MSC_RDPS_DewPointDepression_IsbL-0200_RLatLon0.09_PT049H.grib2 2026-04-25 02:59 233K
20260425T00Z_MSC_RDPS_DewPointDepression_IsbL-0225_RLatLon0.09_PT049H.grib2 2026-04-25 02:59 267K
20260425T00Z_MSC_RDPS_DewPointDepression_IsbL-0250_RLatLon0.09_PT049H.grib2 2026-04-25 02:59 305K
20260425T00Z_MSC_RDPS_DewPointDepression_IsbL-0275_RLatLon0.09_PT049H.grib2 2026-04-25 02:59 313K
20260425T00Z_MSC_RDPS_DewPointDepression_IsbL-0300_RLatLon0.09_PT049H.grib2 2026-04-25 02:59 331K
20260425T00Z_MSC_RDPS_DewPointDepression_IsbL-0350_RLatLon0.09_PT049H.grib2 2026-04-25 02:59 338K
20260425T00Z_MSC_RDPS_DewPointDepression_IsbL-0400_RLatLon0.09_PT049H.grib2 2026-04-25 02:59 353K
20260425T00Z_MSC_RDPS_DewPointDepression_IsbL-0450_RLatLon0.09_PT049H.grib2 2026-04-25 02:59 365K
20260425T00Z_MSC_RDPS_DewPointDepression_IsbL-0500_RLatLon0.09_PT049H.grib2 2026-04-25 02:59 372K
20260425T00Z_MSC_RDPS_DewPointDepression_IsbL-0550_RLatLon0.09_PT049H.grib2 2026-04-25 02:59 384K
20260425T00Z_MSC_RDPS_DewPointDepression_IsbL-0600_RLatLon0.09_PT049H.grib2 2026-04-25 02:59 394K
20260425T00Z_MSC_RDPS_DewPointDepression_IsbL-0650_RLatLon0.09_PT049H.grib2 2026-04-25 02:59 396K
20260425T00Z_MSC_RDPS_DewPointDepression_IsbL-0700_RLatLon0.09_PT049H.grib2 2026-04-25 02:59 406K
20260425T00Z_MSC_RDPS_DewPointDepression_IsbL-0750_RLatLon0.09_PT049H.grib2 2026-04-25 02:59 429K
20260425T00Z_MSC_RDPS_DewPointDepression_IsbL-0800_RLatLon0.09_PT049H.grib2 2026-04-25 02:59 456K
20260425T00Z_MSC_RDPS_DewPointDepression_IsbL-0850_RLatLon0.09_PT049H.grib2 2026-04-25 02:59 477K
20260425T00Z_MSC_RDPS_DewPointDepression_IsbL-0875_RLatLon0.09_PT049H.grib2 2026-04-25 02:59 477K
20260425T00Z_MSC_RDPS_DewPointDepression_IsbL-0900_RLatLon0.09_PT049H.grib2 2026-04-25 02:59 468K
20260425T00Z_MSC_RDPS_DewPointDepression_IsbL-0925_RLatLon0.09_PT049H.grib2 2026-04-25 02:59 456K
20260425T00Z_MSC_RDPS_DewPointDepression_IsbL-0950_RLatLon0.09_PT049H.grib2 2026-04-25 02:59 441K
20260425T00Z_MSC_RDPS_DewPointDepression_IsbL-0970_RLatLon0.09_PT049H.grib2 2026-04-25 02:59 430K
20260425T00Z_MSC_RDPS_DewPointDepression_IsbL-0985_RLatLon0.09_PT049H.grib2 2026-04-25 02:59 426K
20260425T00Z_MSC_RDPS_DewPointDepression_IsbL-1000_RLatLon0.09_PT049H.grib2 2026-04-25 02:59 421K
20260425T00Z_MSC_RDPS_DewPointDepression_IsbL-1015_RLatLon0.09_PT049H.grib2 2026-04-25 02:59 413K
20260425T00Z_MSC_RDPS_DewPoint_AGL-2m_RLatLon0.09_PT049H.grib2 2026-04-25 02:59 307K
20260425T00Z_MSC_RDPS_DownwardLongwaveRadiationFlux-Accum_Sfc_RLatLon0.09_PT049H.grib2 2026-04-25 02:59 378K
20260425T00Z_MSC_RDPS_DownwardShortwaveRadiationFlux-Accum_NTAtm_RLatLon0.09_PT049H.grib2 2026-04-25 02:59 125K
20260425T00Z_MSC_RDPS_DownwardShortwaveRadiationFlux-Accum_Sfc_RLatLon0.09_PT049H.grib2 2026-04-25 02:59 568K
20260425T00Z_MSC_RDPS_FreezingRain-Accum1h_Sfc_RLatLon0.09_PT049H.grib2 2026-04-25 02:59 16K
20260425T00Z_MSC_RDPS_FreezingRain-Accum_Sfc_RLatLon0.09_PT049H.grib2 2026-04-25 02:59 167K
20260425T00Z_MSC_RDPS_GeopotentialHeight_IsbL-0001_RLatLon0.09_PT049H.grib2 2026-04-25 02:59 239K
20260425T00Z_MSC_RDPS_GeopotentialHeight_IsbL-0005_RLatLon0.09_PT049H.grib2 2026-04-25 02:59 338K
20260425T00Z_MSC_RDPS_GeopotentialHeight_IsbL-0010_RLatLon0.09_PT049H.grib2 2026-04-25 02:59 307K
20260425T00Z_MSC_RDPS_GeopotentialHeight_IsbL-0020_RLatLon0.09_PT049H.grib2 2026-04-25 02:59 306K
20260425T00Z_MSC_RDPS_GeopotentialHeight_IsbL-0030_RLatLon0.09_PT049H.grib2 2026-04-25 02:59 405K
20260425T00Z_MSC_RDPS_GeopotentialHeight_IsbL-0050_RLatLon0.09_PT049H.grib2 2026-04-25 02:59 309K
20260425T00Z_MSC_RDPS_GeopotentialHeight_IsbL-0100_RLatLon0.09_PT049H.grib2 2026-04-25 02:59 289K
20260425T00Z_MSC_RDPS_GeopotentialHeight_IsbL-0150_RLatLon0.09_PT049H.grib2 2026-04-25 02:59 229K
20260425T00Z_MSC_RDPS_GeopotentialHeight_IsbL-0175_RLatLon0.09_PT049H.grib2 2026-04-25 02:59 232K
20260425T00Z_MSC_RDPS_GeopotentialHeight_IsbL-0200_RLatLon0.09_PT049H.grib2 2026-04-25 02:59 265K
20260425T00Z_MSC_RDPS_GeopotentialHeight_IsbL-0225_RLatLon0.09_PT049H.grib2 2026-04-25 02:59 267K
20260425T00Z_MSC_RDPS_GeopotentialHeight_IsbL-0250_RLatLon0.09_PT049H.grib2 2026-04-25 02:59 268K
20260425T00Z_MSC_RDPS_GeopotentialHeight_IsbL-0275_RLatLon0.09_PT049H.grib2 2026-04-25 02:59 236K
20260425T00Z_MSC_RDPS_GeopotentialHeight_IsbL-0300_RLatLon0.09_PT049H.grib2 2026-04-25 02:59 235K
20260425T00Z_MSC_RDPS_GeopotentialHeight_IsbL-0350_RLatLon0.09_PT049H.grib2 2026-04-25 02:59 232K
20260425T00Z_MSC_RDPS_GeopotentialHeight_IsbL-0400_RLatLon0.09_PT049H.grib2 2026-04-25 02:59 228K
20260425T00Z_MSC_RDPS_GeopotentialHeight_IsbL-0450_RLatLon0.09_PT049H.grib2 2026-04-25 02:59 297K
20260425T00Z_MSC_RDPS_GeopotentialHeight_IsbL-0500_RLatLon0.09_PT049H.grib2 2026-04-25 02:59 292K
20260425T00Z_MSC_RDPS_GeopotentialHeight_IsbL-0550_RLatLon0.09_PT049H.grib2 2026-04-25 02:59 289K
20260425T00Z_MSC_RDPS_GeopotentialHeight_IsbL-0600_RLatLon0.09_PT049H.grib2 2026-04-25 02:59 286K
20260425T00Z_MSC_RDPS_GeopotentialHeight_IsbL-0650_RLatLon0.09_PT049H.grib2 2026-04-25 02:59 284K
20260425T00Z_MSC_RDPS_GeopotentialHeight_IsbL-0700_RLatLon0.09_PT049H.grib2 2026-04-25 02:59 282K
20260425T00Z_MSC_RDPS_GeopotentialHeight_IsbL-0750_RLatLon0.09_PT049H.grib2 2026-04-25 02:59 281K
20260425T00Z_MSC_RDPS_GeopotentialHeight_IsbL-0800_RLatLon0.09_PT049H.grib2 2026-04-25 02:59 260K
20260425T00Z_MSC_RDPS_GeopotentialHeight_IsbL-0850_RLatLon0.09_PT049H.grib2 2026-04-25 02:59 265K
20260425T00Z_MSC_RDPS_GeopotentialHeight_IsbL-0875_RLatLon0.09_PT049H.grib2 2026-04-25 02:59 266K
20260425T00Z_MSC_RDPS_GeopotentialHeight_IsbL-0900_RLatLon0.09_PT049H.grib2 2026-04-25 02:59 271K
20260425T00Z_MSC_RDPS_GeopotentialHeight_IsbL-0925_RLatLon0.09_PT049H.grib2 2026-04-25 02:59 274K
20260425T00Z_MSC_RDPS_GeopotentialHeight_IsbL-0950_RLatLon0.09_PT049H.grib2 2026-04-25 02:59 276K
20260425T00Z_MSC_RDPS_GeopotentialHeight_IsbL-0970_RLatLon0.09_PT049H.grib2 2026-04-25 02:59 281K
20260425T00Z_MSC_RDPS_GeopotentialHeight_IsbL-0985_RLatLon0.09_PT049H.grib2 2026-04-25 02:59 288K
20260425T00Z_MSC_RDPS_GeopotentialHeight_IsbL-1000_RLatLon0.09_PT049H.grib2 2026-04-25 02:59 297K
20260425T00Z_MSC_RDPS_GeopotentialHeight_IsbL-1015_RLatLon0.09_PT049H.grib2 2026-04-25 02:59 307K
20260425T00Z_MSC_RDPS_Humidex_Sfc_RLatLon0.09_PT049H.grib2 2026-04-25 02:59 2.3M
20260425T00Z_MSC_RDPS_IcePellets-Accum1h_Sfc_RLatLon0.09_PT049H.grib2 2026-04-25 02:59 9.6K
20260425T00Z_MSC_RDPS_IcePellets-Accum_Sfc_RLatLon0.09_PT049H.grib2 2026-04-25 02:59 61K
20260425T00Z_MSC_RDPS_KIndex_Sfc_RLatLon0.09_PT049H.grib2 2026-04-25 02:59 2.4M
20260425T00Z_MSC_RDPS_LatentHeatNetFlux_Sfc_RLatLon0.09_PT049H.grib2 2026-04-25 02:59 337K
20260425T00Z_MSC_RDPS_LiftedIndex-MU-VT_IsbL-0500_RLatLon0.09_PT049H.grib2 2026-04-25 02:59 2.4M
20260425T00Z_MSC_RDPS_NetLongwaveRadiationFlux-Accum_Sfc_RLatLon0.09_PT049H.grib2 2026-04-25 02:59 552K
20260425T00Z_MSC_RDPS_NetShortwaveRadiationFlux-Accum_Sfc_RLatLon0.09_PT049H.grib2 2026-04-25 02:59 571K
20260425T00Z_MSC_RDPS_PlanetaryBoundaryLayerHeight_Sfc_RLatLon0.09_PT049H.grib2 2026-04-25 02:59 1.1M
20260425T00Z_MSC_RDPS_Precip-Accum1h_Sfc_RLatLon0.09_PT049H.grib2 2026-04-25 02:59 1.2M
20260425T00Z_MSC_RDPS_Precip-Accum_Sfc_RLatLon0.09_PT049H.grib2 2026-04-25 02:59 2.1M
20260425T00Z_MSC_RDPS_PrecipRate_Sfc_RLatLon0.09_PT049H.grib2 2026-04-25 02:59 169K
20260425T00Z_MSC_RDPS_PrecipType-Instant_Sfc_RLatLon0.09_PT049H.grib2 2026-04-25 02:59 592K
20260425T00Z_MSC_RDPS_Pressure-Trend3h_Sfc_RLatLon0.09_PT049H.grib2 2026-04-25 02:59 1.2M
20260425T00Z_MSC_RDPS_Pressure_MSL_RLatLon0.09_PT049H.grib2 2026-04-25 02:59 325K
20260425T00Z_MSC_RDPS_Pressure_PVU-1.5_RLatLon0.09_PT049H.grib2 2026-04-25 02:59 2.3M
20260425T00Z_MSC_RDPS_Pressure_PVU-1_RLatLon0.09_PT049H.grib2 2026-04-25 02:59 2.4M
20260425T00Z_MSC_RDPS_Pressure_PVU-2_RLatLon0.09_PT049H.grib2 2026-04-25 02:59 2.4M
20260425T00Z_MSC_RDPS_Pressure_Sfc_RLatLon0.09_PT049H.grib2 2026-04-25 02:59 498K
20260425T00Z_MSC_RDPS_RadiativeTemp_Sfc_RLatLon0.09_PT049H.grib2 2026-04-25 02:59 314K
20260425T00Z_MSC_RDPS_Rain-Accum1h_Sfc_RLatLon0.09_PT049H.grib2 2026-04-25 02:59 528K
20260425T00Z_MSC_RDPS_Rain-Accum_Sfc_RLatLon0.09_PT049H.grib2 2026-04-25 02:59 1.6M
20260425T00Z_MSC_RDPS_RelativeHumidity_AGL-2m_RLatLon0.09_PT049H.grib2 2026-04-25 02:59 1.0M
20260425T00Z_MSC_RDPS_RelativeHumidity_IsbL-0010_RLatLon0.09_PT049H.grib2 2026-04-25 02:59 627K
20260425T00Z_MSC_RDPS_RelativeHumidity_IsbL-0020_RLatLon0.09_PT049H.grib2 2026-04-25 02:59 656K
20260425T00Z_MSC_RDPS_RelativeHumidity_IsbL-0030_RLatLon0.09_PT049H.grib2 2026-04-25 02:59 618K
20260425T00Z_MSC_RDPS_RelativeHumidity_IsbL-0050_RLatLon0.09_PT049H.grib2 2026-04-25 02:59 330K
20260425T00Z_MSC_RDPS_RelativeHumidity_IsbL-0100_RLatLon0.09_PT049H.grib2 2026-04-25 02:59 273K
20260425T00Z_MSC_RDPS_RelativeHumidity_IsbL-0150_RLatLon0.09_PT049H.grib2 2026-04-25 02:59 406K
20260425T00Z_MSC_RDPS_RelativeHumidity_IsbL-0175_RLatLon0.09_PT049H.grib2 2026-04-25 02:59 488K
20260425T00Z_MSC_RDPS_RelativeHumidity_IsbL-0200_RLatLon0.09_PT049H.grib2 2026-04-25 02:59 573K
20260425T00Z_MSC_RDPS_RelativeHumidity_IsbL-0225_RLatLon0.09_PT049H.grib2 2026-04-25 02:59 640K
20260425T00Z_MSC_RDPS_RelativeHumidity_IsbL-0250_RLatLon0.09_PT049H.grib2 2026-04-25 02:59 710K
20260425T00Z_MSC_RDPS_RelativeHumidity_IsbL-0275_RLatLon0.09_PT049H.grib2 2026-04-25 02:59 735K
20260425T00Z_MSC_RDPS_RelativeHumidity_IsbL-0300_RLatLon0.09_PT049H.grib2 2026-04-25 02:59 776K
20260425T00Z_MSC_RDPS_RelativeHumidity_IsbL-0350_RLatLon0.09_PT049H.grib2 2026-04-25 02:59 795K
20260425T00Z_MSC_RDPS_RelativeHumidity_IsbL-0400_RLatLon0.09_PT049H.grib2 2026-04-25 02:59 814K
20260425T00Z_MSC_RDPS_RelativeHumidity_IsbL-0450_RLatLon0.09_PT049H.grib2 2026-04-25 02:59 828K
20260425T00Z_MSC_RDPS_RelativeHumidity_IsbL-0500_RLatLon0.09_PT049H.grib2 2026-04-25 02:59 838K
20260425T00Z_MSC_RDPS_RelativeHumidity_IsbL-0550_RLatLon0.09_PT049H.grib2 2026-04-25 02:59 856K
20260425T00Z_MSC_RDPS_RelativeHumidity_IsbL-0600_RLatLon0.09_PT049H.grib2 2026-04-25 02:59 873K
20260425T00Z_MSC_RDPS_RelativeHumidity_IsbL-0650_RLatLon0.09_PT049H.grib2 2026-04-25 02:59 883K
20260425T00Z_MSC_RDPS_RelativeHumidity_IsbL-0700_RLatLon0.09_PT049H.grib2 2026-04-25 02:59 915K
20260425T00Z_MSC_RDPS_RelativeHumidity_IsbL-0750_RLatLon0.09_PT049H.grib2 2026-04-25 02:59 955K
20260425T00Z_MSC_RDPS_RelativeHumidity_IsbL-0800_RLatLon0.09_PT049H.grib2 2026-04-25 02:59 1.0M
20260425T00Z_MSC_RDPS_RelativeHumidity_IsbL-0850_RLatLon0.09_PT049H.grib2 2026-04-25 02:59 1.0M
20260425T00Z_MSC_RDPS_RelativeHumidity_IsbL-0875_RLatLon0.09_PT049H.grib2 2026-04-25 02:59 1.1M
20260425T00Z_MSC_RDPS_RelativeHumidity_IsbL-0900_RLatLon0.09_PT049H.grib2 2026-04-25 02:59 1.1M
20260425T00Z_MSC_RDPS_RelativeHumidity_IsbL-0925_RLatLon0.09_PT049H.grib2 2026-04-25 02:59 1.1M
20260425T00Z_MSC_RDPS_RelativeHumidity_IsbL-0950_RLatLon0.09_PT049H.grib2 2026-04-25 02:59 1.1M
20260425T00Z_MSC_RDPS_RelativeHumidity_IsbL-0970_RLatLon0.09_PT049H.grib2 2026-04-25 02:59 1.0M
20260425T00Z_MSC_RDPS_RelativeHumidity_IsbL-0985_RLatLon0.09_PT049H.grib2 2026-04-25 02:59 1.0M
20260425T00Z_MSC_RDPS_RelativeHumidity_IsbL-1000_RLatLon0.09_PT049H.grib2 2026-04-25 02:59 1.0M
20260425T00Z_MSC_RDPS_RelativeHumidity_IsbL-1015_RLatLon0.09_PT049H.grib2 2026-04-25 02:59 1.0M
20260425T00Z_MSC_RDPS_Runoff-Accum_Sfc_RLatLon0.09_PT049H.grib2 2026-04-25 02:59 67K
20260425T00Z_MSC_RDPS_SWEATIndex_Sfc_RLatLon0.09_PT049H.grib2 2026-04-25 02:59 2.4M
20260425T00Z_MSC_RDPS_SeeingIndex_EAtm_RLatLon0.09_PT049H.grib2 2026-04-25 02:59 1.0M
20260425T00Z_MSC_RDPS_SensibleHeatNetFlux_Sfc_RLatLon0.09_PT049H.grib2 2026-04-25 02:59 303K
20260425T00Z_MSC_RDPS_ShowalterIndex_IsbL-0500_RLatLon0.09_PT049H.grib2 2026-04-25 02:59 2.6M
20260425T00Z_MSC_RDPS_SkyTransparencyIndex_EAtm_RLatLon0.09_PT049H.grib2 2026-04-25 02:59 721K
20260425T00Z_MSC_RDPS_Snow-Accum1h_Sfc_RLatLon0.09_PT049H.grib2 2026-04-25 02:59 514K
20260425T00Z_MSC_RDPS_Snow-Accum_Sfc_RLatLon0.09_PT049H.grib2 2026-04-25 02:59 896K
20260425T00Z_MSC_RDPS_SnowDensity_Sfc_RLatLon0.09_PT049H.grib2 2026-04-25 02:59 185K
20260425T00Z_MSC_RDPS_SnowDepth_Sfc_RLatLon0.09_PT049H.grib2 2026-04-25 02:59 735K
20260425T00Z_MSC_RDPS_SoilTemp_DBS-0to10cm_RLatLon0.09_PT049H.grib2 2026-04-25 02:59 239K
20260425T00Z_MSC_RDPS_SoilTemp_Sfc_RLatLon0.09_PT049H.grib2 2026-04-25 02:59 263K
20260425T00Z_MSC_RDPS_SoilVolumetricIceContent_Sfc_RLatLon0.09_PT049H.grib2 2026-04-25 02:59 169K
20260425T00Z_MSC_RDPS_SoilVolumetricWaterContent_DBS-0to10cm_RLatLon0.09_PT049H.grib2 2026-04-25 02:59 258K
20260425T00Z_MSC_RDPS_SoilVolumetricWaterContent_DBS-0to1cm_RLatLon0.09_PT049H.grib2 2026-04-25 02:59 343K
20260425T00Z_MSC_RDPS_SpecificHumidity_AGL-120m_RLatLon0.09_PT049H.grib2 2026-04-25 02:59 481K
20260425T00Z_MSC_RDPS_SpecificHumidity_AGL-2m_RLatLon0.09_PT049H.grib2 2026-04-25 02:59 649K
20260425T00Z_MSC_RDPS_SpecificHumidity_AGL-40m_RLatLon0.09_PT049H.grib2 2026-04-25 02:59 487K
20260425T00Z_MSC_RDPS_SpecificHumidity_AGL-80m_RLatLon0.09_PT049H.grib2 2026-04-25 02:59 483K
20260425T00Z_MSC_RDPS_SpecificHumidity_IsbL-0001_RLatLon0.09_PT049H.grib2 2026-04-25 02:59 343K
20260425T00Z_MSC_RDPS_SpecificHumidity_IsbL-0005_RLatLon0.09_PT049H.grib2 2026-04-25 02:59 457K
20260425T00Z_MSC_RDPS_SpecificHumidity_IsbL-0010_RLatLon0.09_PT049H.grib2 2026-04-25 02:59 399K
20260425T00Z_MSC_RDPS_SpecificHumidity_IsbL-0020_RLatLon0.09_PT049H.grib2 2026-04-25 02:59 496K
20260425T00Z_MSC_RDPS_SpecificHumidity_IsbL-0030_RLatLon0.09_PT049H.grib2 2026-04-25 02:59 476K
20260425T00Z_MSC_RDPS_SpecificHumidity_IsbL-0050_RLatLon0.09_PT049H.grib2 2026-04-25 02:59 474K
20260425T00Z_MSC_RDPS_SpecificHumidity_IsbL-0100_RLatLon0.09_PT049H.grib2 2026-04-25 02:59 352K
20260425T00Z_MSC_RDPS_SpecificHumidity_IsbL-0150_RLatLon0.09_PT049H.grib2 2026-04-25 02:59 450K
20260425T00Z_MSC_RDPS_SpecificHumidity_IsbL-0175_RLatLon0.09_PT049H.grib2 2026-04-25 02:59 455K
20260425T00Z_MSC_RDPS_SpecificHumidity_IsbL-0200_RLatLon0.09_PT049H.grib2 2026-04-25 02:59 473K
20260425T00Z_MSC_RDPS_SpecificHumidity_IsbL-0225_RLatLon0.09_PT049H.grib2 2026-04-25 02:59 468K
20260425T00Z_MSC_RDPS_SpecificHumidity_IsbL-0250_RLatLon0.09_PT049H.grib2 2026-04-25 02:59 573K
20260425T00Z_MSC_RDPS_SpecificHumidity_IsbL-0275_RLatLon0.09_PT049H.grib2 2026-04-25 02:59 484K
20260425T00Z_MSC_RDPS_SpecificHumidity_IsbL-0300_RLatLon0.09_PT049H.grib2 2026-04-25 02:59 554K
20260425T00Z_MSC_RDPS_SpecificHumidity_IsbL-0350_RLatLon0.09_PT049H.grib2 2026-04-25 02:59 543K
20260425T00Z_MSC_RDPS_SpecificHumidity_IsbL-0400_RLatLon0.09_PT049H.grib2 2026-04-25 02:59 529K
20260425T00Z_MSC_RDPS_SpecificHumidity_IsbL-0450_RLatLon0.09_PT049H.grib2 2026-04-25 02:59 588K
20260425T00Z_MSC_RDPS_SpecificHumidity_IsbL-0500_RLatLon0.09_PT049H.grib2 2026-04-25 02:59 527K
20260425T00Z_MSC_RDPS_SpecificHumidity_IsbL-0550_RLatLon0.09_PT049H.grib2 2026-04-25 02:59 582K
20260425T00Z_MSC_RDPS_SpecificHumidity_IsbL-0600_RLatLon0.09_PT049H.grib2 2026-04-25 02:59 648K
20260425T00Z_MSC_RDPS_SpecificHumidity_IsbL-0650_RLatLon0.09_PT049H.grib2 2026-04-25 02:59 563K
20260425T00Z_MSC_RDPS_SpecificHumidity_IsbL-0700_RLatLon0.09_PT049H.grib2 2026-04-25 02:59 606K
20260425T00Z_MSC_RDPS_SpecificHumidity_IsbL-0750_RLatLon0.09_PT049H.grib2 2026-04-25 02:59 662K
20260425T00Z_MSC_RDPS_SpecificHumidity_IsbL-0800_RLatLon0.09_PT049H.grib2 2026-04-25 02:59 741K
20260425T00Z_MSC_RDPS_SpecificHumidity_IsbL-0850_RLatLon0.09_PT049H.grib2 2026-04-25 02:59 806K
20260425T00Z_MSC_RDPS_SpecificHumidity_IsbL-0875_RLatLon0.09_PT049H.grib2 2026-04-25 02:59 690K
20260425T00Z_MSC_RDPS_SpecificHumidity_IsbL-0900_RLatLon0.09_PT049H.grib2 2026-04-25 02:59 701K
20260425T00Z_MSC_RDPS_SpecificHumidity_IsbL-0925_RLatLon0.09_PT049H.grib2 2026-04-25 02:59 701K
20260425T00Z_MSC_RDPS_SpecificHumidity_IsbL-0950_RLatLon0.09_PT049H.grib2 2026-04-25 02:59 693K
20260425T00Z_MSC_RDPS_SpecificHumidity_IsbL-0970_RLatLon0.09_PT049H.grib2 2026-04-25 02:59 681K
20260425T00Z_MSC_RDPS_SpecificHumidity_IsbL-0985_RLatLon0.09_PT049H.grib2 2026-04-25 02:59 672K
20260425T00Z_MSC_RDPS_SpecificHumidity_IsbL-1000_RLatLon0.09_PT049H.grib2 2026-04-25 02:59 667K
20260425T00Z_MSC_RDPS_SpecificHumidity_IsbL-1015_RLatLon0.09_PT049H.grib2 2026-04-25 02:59 660K
20260425T00Z_MSC_RDPS_SpecificHumidity_Sfc_RLatLon0.09_PT049H.grib2 2026-04-25 02:59 326K
20260425T00Z_MSC_RDPS_StormRelativeHelicity_EtaL-10000_RLatLon0.09_PT049H.grib2 2026-04-25 02:59 1.1M
20260425T00Z_MSC_RDPS_StormSeverityIndex_EtaL-10000_RLatLon0.09_PT049H.grib2 2026-04-25 02:59 1.2M
20260425T00Z_MSC_RDPS_Thickness_IsbL-0850to0700_RLatLon0.09_PT049H.grib2 2026-04-25 02:59 194K
20260425T00Z_MSC_RDPS_Thickness_IsbL-1000to0500_RLatLon0.09_PT049H.grib2 2026-04-25 02:59 201K
20260425T00Z_MSC_RDPS_Thickness_IsbL-1000to0850_RLatLon0.09_PT049H.grib2 2026-04-25 02:59 183K
20260425T00Z_MSC_RDPS_TotalCloudCover_Sfc_RLatLon0.09_PT049H.grib2 2026-04-25 02:59 664K
20260425T00Z_MSC_RDPS_TotalTotalsIndex_Sfc_RLatLon0.09_PT049H.grib2 2026-04-25 02:59 2.4M
20260425T00Z_MSC_RDPS_UVIndex-ClearSky_Sfc_RLatLon0.09_PT049H.grib2 2026-04-25 02:59 140K
20260425T00Z_MSC_RDPS_UVIndex_Sfc_RLatLon0.09_PT049H.grib2 2026-04-25 02:59 320K
20260425T00Z_MSC_RDPS_UpwardLongwaveRadiationFlux_NTAtm_RLatLon0.09_PT049H.grib2 2026-04-25 02:59 497K
20260425T00Z_MSC_RDPS_UpwardShortwaveRadiationFlux_NTAtm_RLatLon0.09_PT049H.grib2 2026-04-25 02:59 293K
20260425T00Z_MSC_RDPS_VerticalVelocity_IsbL-0250_RLatLon0.09_PT049H.grib2 2026-04-25 02:59 545K
20260425T00Z_MSC_RDPS_VerticalVelocity_IsbL-0500_RLatLon0.09_PT049H.grib2 2026-04-25 02:59 542K
20260425T00Z_MSC_RDPS_VerticalVelocity_IsbL-0700_RLatLon0.09_PT049H.grib2 2026-04-25 02:59 596K
20260425T00Z_MSC_RDPS_VerticalVelocity_IsbL-0850_RLatLon0.09_PT049H.grib2 2026-04-25 02:59 694K
20260425T00Z_MSC_RDPS_VerticalWindShear_EtaL-6500_RLatLon0.09_PT049H.grib2 2026-04-25 02:59 1.2M
20260425T00Z_MSC_RDPS_WindChill_Sfc_RLatLon0.09_PT049H.grib2 2026-04-25 02:59 1.1M
20260425T00Z_MSC_RDPS_WindDir_AGL-10m_RLatLon0.09_PT049H.grib2 2026-04-25 02:59 967K
20260425T00Z_MSC_RDPS_WindDir_AGL-120m_RLatLon0.09_PT049H.grib2 2026-04-25 02:59 607K
20260425T00Z_MSC_RDPS_WindDir_AGL-40m_RLatLon0.09_PT049H.grib2 2026-04-25 02:59 634K
20260425T00Z_MSC_RDPS_WindDir_AGL-80m_RLatLon0.09_PT049H.grib2 2026-04-25 02:59 618K
20260425T00Z_MSC_RDPS_WindDir_IsbL-0001_RLatLon0.09_PT049H.grib2 2026-04-25 02:59 293K
20260425T00Z_MSC_RDPS_WindDir_IsbL-0005_RLatLon0.09_PT049H.grib2 2026-04-25 02:59 377K
20260425T00Z_MSC_RDPS_WindDir_IsbL-0010_RLatLon0.09_PT049H.grib2 2026-04-25 02:59 398K
20260425T00Z_MSC_RDPS_WindDir_IsbL-0020_RLatLon0.09_PT049H.grib2 2026-04-25 02:59 438K
20260425T00Z_MSC_RDPS_WindDir_IsbL-0030_RLatLon0.09_PT049H.grib2 2026-04-25 02:59 415K
20260425T00Z_MSC_RDPS_WindDir_IsbL-0050_RLatLon0.09_PT049H.grib2 2026-04-25 02:59 435K
20260425T00Z_MSC_RDPS_WindDir_IsbL-0100_RLatLon0.09_PT049H.grib2 2026-04-25 02:59 407K
20260425T00Z_MSC_RDPS_WindDir_IsbL-0150_RLatLon0.09_PT049H.grib2 2026-04-25 02:59 413K
20260425T00Z_MSC_RDPS_WindDir_IsbL-0175_RLatLon0.09_PT049H.grib2 2026-04-25 02:59 439K
20260425T00Z_MSC_RDPS_WindDir_IsbL-0200_RLatLon0.09_PT049H.grib2 2026-04-25 02:59 453K
20260425T00Z_MSC_RDPS_WindDir_IsbL-0225_RLatLon0.09_PT049H.grib2 2026-04-25 02:59 457K
20260425T00Z_MSC_RDPS_WindDir_IsbL-0250_RLatLon0.09_PT049H.grib2 2026-04-25 02:59 457K
20260425T00Z_MSC_RDPS_WindDir_IsbL-0275_RLatLon0.09_PT049H.grib2 2026-04-25 02:59 481K
20260425T00Z_MSC_RDPS_WindDir_IsbL-0300_RLatLon0.09_PT049H.grib2 2026-04-25 02:59 477K
20260425T00Z_MSC_RDPS_WindDir_IsbL-0350_RLatLon0.09_PT049H.grib2 2026-04-25 02:59 499K
20260425T00Z_MSC_RDPS_WindDir_IsbL-0400_RLatLon0.09_PT049H.grib2 2026-04-25 02:59 519K
20260425T00Z_MSC_RDPS_WindDir_IsbL-0450_RLatLon0.09_PT049H.grib2 2026-04-25 02:59 536K
20260425T00Z_MSC_RDPS_WindDir_IsbL-0500_RLatLon0.09_PT049H.grib2 2026-04-25 02:59 551K
20260425T00Z_MSC_RDPS_WindDir_IsbL-0550_RLatLon0.09_PT049H.grib2 2026-04-25 02:59 569K
20260425T00Z_MSC_RDPS_WindDir_IsbL-0600_RLatLon0.09_PT049H.grib2 2026-04-25 02:59 598K
20260425T00Z_MSC_RDPS_WindDir_IsbL-0650_RLatLon0.09_PT049H.grib2 2026-04-25 02:59 638K
20260425T00Z_MSC_RDPS_WindDir_IsbL-0700_RLatLon0.09_PT049H.grib2 2026-04-25 02:59 679K
20260425T00Z_MSC_RDPS_WindDir_IsbL-0750_RLatLon0.09_PT049H.grib2 2026-04-25 02:59 731K
20260425T00Z_MSC_RDPS_WindDir_IsbL-0800_RLatLon0.09_PT049H.grib2 2026-04-25 02:59 800K
20260425T00Z_MSC_RDPS_WindDir_IsbL-0850_RLatLon0.09_PT049H.grib2 2026-04-25 02:59 873K
20260425T00Z_MSC_RDPS_WindDir_IsbL-0875_RLatLon0.09_PT049H.grib2 2026-04-25 02:59 894K
20260425T00Z_MSC_RDPS_WindDir_IsbL-0900_RLatLon0.09_PT049H.grib2 2026-04-25 02:59 905K
20260425T00Z_MSC_RDPS_WindDir_IsbL-0925_RLatLon0.09_PT049H.grib2 2026-04-25 02:59 909K
20260425T00Z_MSC_RDPS_WindDir_IsbL-0950_RLatLon0.09_PT049H.grib2 2026-04-25 02:59 907K
20260425T00Z_MSC_RDPS_WindDir_IsbL-0970_RLatLon0.09_PT049H.grib2 2026-04-25 02:59 913K
20260425T00Z_MSC_RDPS_WindDir_IsbL-0985_RLatLon0.09_PT049H.grib2 2026-04-25 02:59 924K
20260425T00Z_MSC_RDPS_WindDir_IsbL-1000_RLatLon0.09_PT049H.grib2 2026-04-25 02:59 940K
20260425T00Z_MSC_RDPS_WindDir_IsbL-1015_RLatLon0.09_PT049H.grib2 2026-04-25 02:59 957K
20260425T00Z_MSC_RDPS_WindGust-Max_AGL-10m_RLatLon0.09_PT049H.grib2 2026-04-25 02:59 947K
20260425T00Z_MSC_RDPS_WindGust-Min_AGL-10m_RLatLon0.09_PT049H.grib2 2026-04-25 02:59 1.0M
20260425T00Z_MSC_RDPS_WindGust_AGL-10m_RLatLon0.09_PT049H.grib2 2026-04-25 02:59 1.0M
20260425T00Z_MSC_RDPS_WindSpeed_AGL-10m_RLatLon0.09_PT049H.grib2 2026-04-25 02:59 842K
20260425T00Z_MSC_RDPS_WindSpeed_AGL-120m_RLatLon0.09_PT049H.grib2 2026-04-25 02:59 549K
20260425T00Z_MSC_RDPS_WindSpeed_AGL-40m_RLatLon0.09_PT049H.grib2 2026-04-25 02:59 555K
20260425T00Z_MSC_RDPS_WindSpeed_AGL-80m_RLatLon0.09_PT049H.grib2 2026-04-25 02:59 551K
20260425T00Z_MSC_RDPS_WindSpeed_IsbL-0001_RLatLon0.09_PT049H.grib2 2026-04-25 02:59 251K
20260425T00Z_MSC_RDPS_WindSpeed_IsbL-0005_RLatLon0.09_PT049H.grib2 2026-04-25 02:59 300K
20260425T00Z_MSC_RDPS_WindSpeed_IsbL-0010_RLatLon0.09_PT049H.grib2 2026-04-25 02:59 317K
20260425T00Z_MSC_RDPS_WindSpeed_IsbL-0020_RLatLon0.09_PT049H.grib2 2026-04-25 02:59 334K
20260425T00Z_MSC_RDPS_WindSpeed_IsbL-0030_RLatLon0.09_PT049H.grib2 2026-04-25 02:59 329K
20260425T00Z_MSC_RDPS_WindSpeed_IsbL-0050_RLatLon0.09_PT049H.grib2 2026-04-25 02:59 470K
20260425T00Z_MSC_RDPS_WindSpeed_IsbL-0100_RLatLon0.09_PT049H.grib2 2026-04-25 02:59 476K
20260425T00Z_MSC_RDPS_WindSpeed_IsbL-0150_RLatLon0.09_PT049H.grib2 2026-04-25 02:59 377K
20260425T00Z_MSC_RDPS_WindSpeed_IsbL-0175_RLatLon0.09_PT049H.grib2 2026-04-25 02:59 427K
20260425T00Z_MSC_RDPS_WindSpeed_IsbL-0200_RLatLon0.09_PT049H.grib2 2026-04-25 02:59 443K
20260425T00Z_MSC_RDPS_WindSpeed_IsbL-0225_RLatLon0.09_PT049H.grib2 2026-04-25 02:59 451K
20260425T00Z_MSC_RDPS_WindSpeed_IsbL-0250_RLatLon0.09_PT049H.grib2 2026-04-25 02:59 455K
20260425T00Z_MSC_RDPS_WindSpeed_IsbL-0275_RLatLon0.09_PT049H.grib2 2026-04-25 02:59 473K
20260425T00Z_MSC_RDPS_WindSpeed_IsbL-0300_RLatLon0.09_PT049H.grib2 2026-04-25 02:59 468K
20260425T00Z_MSC_RDPS_WindSpeed_IsbL-0350_RLatLon0.09_PT049H.grib2 2026-04-25 02:59 481K
20260425T00Z_MSC_RDPS_WindSpeed_IsbL-0400_RLatLon0.09_PT049H.grib2 2026-04-25 02:59 467K
20260425T00Z_MSC_RDPS_WindSpeed_IsbL-0450_RLatLon0.09_PT049H.grib2 2026-04-25 02:59 465K
20260425T00Z_MSC_RDPS_WindSpeed_IsbL-0500_RLatLon0.09_PT049H.grib2 2026-04-25 02:59 465K
20260425T00Z_MSC_RDPS_WindSpeed_IsbL-0550_RLatLon0.09_PT049H.grib2 2026-04-25 02:59 586K
20260425T00Z_MSC_RDPS_WindSpeed_IsbL-0600_RLatLon0.09_PT049H.grib2 2026-04-25 02:59 598K
20260425T00Z_MSC_RDPS_WindSpeed_IsbL-0650_RLatLon0.09_PT049H.grib2 2026-04-25 02:59 616K
20260425T00Z_MSC_RDPS_WindSpeed_IsbL-0700_RLatLon0.09_PT049H.grib2 2026-04-25 02:59 681K
20260425T00Z_MSC_RDPS_WindSpeed_IsbL-0750_RLatLon0.09_PT049H.grib2 2026-04-25 02:59 709K
20260425T00Z_MSC_RDPS_WindSpeed_IsbL-0800_RLatLon0.09_PT049H.grib2 2026-04-25 02:59 757K
20260425T00Z_MSC_RDPS_WindSpeed_IsbL-0850_RLatLon0.09_PT049H.grib2 2026-04-25 02:59 812K
20260425T00Z_MSC_RDPS_WindSpeed_IsbL-0875_RLatLon0.09_PT049H.grib2 2026-04-25 02:59 833K
20260425T00Z_MSC_RDPS_WindSpeed_IsbL-0900_RLatLon0.09_PT049H.grib2 2026-04-25 02:59 850K
20260425T00Z_MSC_RDPS_WindSpeed_IsbL-0925_RLatLon0.09_PT049H.grib2 2026-04-25 02:59 812K
20260425T00Z_MSC_RDPS_WindSpeed_IsbL-0950_RLatLon0.09_PT049H.grib2 2026-04-25 02:59 814K
20260425T00Z_MSC_RDPS_WindSpeed_IsbL-0970_RLatLon0.09_PT049H.grib2 2026-04-25 02:59 861K
20260425T00Z_MSC_RDPS_WindSpeed_IsbL-0985_RLatLon0.09_PT049H.grib2 2026-04-25 02:59 861K
20260425T00Z_MSC_RDPS_WindSpeed_IsbL-1000_RLatLon0.09_PT049H.grib2 2026-04-25 02:59 855K
20260425T00Z_MSC_RDPS_WindSpeed_IsbL-1015_RLatLon0.09_PT049H.grib2 2026-04-25 02:59 844K
20260425T00Z_MSC_RDPS_WindU_AGL-10m_RLatLon0.09_PT049H.grib2 2026-04-25 02:59 434K
20260425T00Z_MSC_RDPS_WindU_AGL-120m_RLatLon0.09_PT049H.grib2 2026-04-25 02:59 418K
20260425T00Z_MSC_RDPS_WindU_AGL-40m_RLatLon0.09_PT049H.grib2 2026-04-25 02:59 540K
20260425T00Z_MSC_RDPS_WindU_AGL-80m_RLatLon0.09_PT049H.grib2 2026-04-25 02:59 420K
20260425T00Z_MSC_RDPS_WindU_IsbL-0001_RLatLon0.09_PT049H.grib2 2026-04-25 02:59 292K
20260425T00Z_MSC_RDPS_WindU_IsbL-0005_RLatLon0.09_PT049H.grib2 2026-04-25 02:59 292K
20260425T00Z_MSC_RDPS_WindU_IsbL-0010_RLatLon0.09_PT049H.grib2 2026-04-25 02:59 306K
20260425T00Z_MSC_RDPS_WindU_IsbL-0020_RLatLon0.09_PT049H.grib2 2026-04-25 02:59 325K
20260425T00Z_MSC_RDPS_WindU_IsbL-0030_RLatLon0.09_PT049H.grib2 2026-04-25 02:59 359K
20260425T00Z_MSC_RDPS_WindU_IsbL-0050_RLatLon0.09_PT049H.grib2 2026-04-25 02:59 358K
20260425T00Z_MSC_RDPS_WindU_IsbL-0100_RLatLon0.09_PT049H.grib2 2026-04-25 02:59 434K
20260425T00Z_MSC_RDPS_WindU_IsbL-0150_RLatLon0.09_PT049H.grib2 2026-04-25 02:59 394K
20260425T00Z_MSC_RDPS_WindU_IsbL-0175_RLatLon0.09_PT049H.grib2 2026-04-25 02:59 421K
20260425T00Z_MSC_RDPS_WindU_IsbL-0200_RLatLon0.09_PT049H.grib2 2026-04-25 02:59 436K
20260425T00Z_MSC_RDPS_WindU_IsbL-0225_RLatLon0.09_PT049H.grib2 2026-04-25 02:59 343K
20260425T00Z_MSC_RDPS_WindU_IsbL-0250_RLatLon0.09_PT049H.grib2 2026-04-25 02:59 345K
20260425T00Z_MSC_RDPS_WindU_IsbL-0275_RLatLon0.09_PT049H.grib2 2026-04-25 02:59 359K
20260425T00Z_MSC_RDPS_WindU_IsbL-0300_RLatLon0.09_PT049H.grib2 2026-04-25 02:59 355K
20260425T00Z_MSC_RDPS_WindU_IsbL-0350_RLatLon0.09_PT049H.grib2 2026-04-25 02:59 365K
20260425T00Z_MSC_RDPS_WindU_IsbL-0400_RLatLon0.09_PT049H.grib2 2026-04-25 02:59 472K
20260425T00Z_MSC_RDPS_WindU_IsbL-0450_RLatLon0.09_PT049H.grib2 2026-04-25 02:59 471K
20260425T00Z_MSC_RDPS_WindU_IsbL-0500_RLatLon0.09_PT049H.grib2 2026-04-25 02:59 472K
20260425T00Z_MSC_RDPS_WindU_IsbL-0550_RLatLon0.09_PT049H.grib2 2026-04-25 02:59 474K
20260425T00Z_MSC_RDPS_WindU_IsbL-0600_RLatLon0.09_PT049H.grib2 2026-04-25 02:59 484K
20260425T00Z_MSC_RDPS_WindU_IsbL-0650_RLatLon0.09_PT049H.grib2 2026-04-25 02:59 485K
20260425T00Z_MSC_RDPS_WindU_IsbL-0700_RLatLon0.09_PT049H.grib2 2026-04-25 02:59 504K
20260425T00Z_MSC_RDPS_WindU_IsbL-0750_RLatLon0.09_PT049H.grib2 2026-04-25 02:59 530K
20260425T00Z_MSC_RDPS_WindU_IsbL-0800_RLatLon0.09_PT049H.grib2 2026-04-25 02:59 572K
20260425T00Z_MSC_RDPS_WindU_IsbL-0850_RLatLon0.09_PT049H.grib2 2026-04-25 02:59 621K
20260425T00Z_MSC_RDPS_WindU_IsbL-0875_RLatLon0.09_PT049H.grib2 2026-04-25 02:59 637K
20260425T00Z_MSC_RDPS_WindU_IsbL-0900_RLatLon0.09_PT049H.grib2 2026-04-25 02:59 649K
20260425T00Z_MSC_RDPS_WindU_IsbL-0925_RLatLon0.09_PT049H.grib2 2026-04-25 02:59 656K
20260425T00Z_MSC_RDPS_WindU_IsbL-0950_RLatLon0.09_PT049H.grib2 2026-04-25 02:59 655K
20260425T00Z_MSC_RDPS_WindU_IsbL-0970_RLatLon0.09_PT049H.grib2 2026-04-25 02:59 654K
20260425T00Z_MSC_RDPS_WindU_IsbL-0985_RLatLon0.09_PT049H.grib2 2026-04-25 02:59 653K
20260425T00Z_MSC_RDPS_WindU_IsbL-1000_RLatLon0.09_PT049H.grib2 2026-04-25 02:59 788K
20260425T00Z_MSC_RDPS_WindU_IsbL-1015_RLatLon0.09_PT049H.grib2 2026-04-25 02:59 783K
20260425T00Z_MSC_RDPS_WindV_AGL-10m_RLatLon0.09_PT049H.grib2 2026-04-25 02:59 430K
20260425T00Z_MSC_RDPS_WindV_AGL-120m_RLatLon0.09_PT049H.grib2 2026-04-25 02:59 416K
20260425T00Z_MSC_RDPS_WindV_AGL-40m_RLatLon0.09_PT049H.grib2 2026-04-25 02:59 536K
20260425T00Z_MSC_RDPS_WindV_AGL-80m_RLatLon0.09_PT049H.grib2 2026-04-25 02:59 418K
20260425T00Z_MSC_RDPS_WindV_IsbL-0001_RLatLon0.09_PT049H.grib2 2026-04-25 02:59 290K
20260425T00Z_MSC_RDPS_WindV_IsbL-0005_RLatLon0.09_PT049H.grib2 2026-04-25 02:59 290K
20260425T00Z_MSC_RDPS_WindV_IsbL-0010_RLatLon0.09_PT049H.grib2 2026-04-25 02:59 307K
20260425T00Z_MSC_RDPS_WindV_IsbL-0020_RLatLon0.09_PT049H.grib2 2026-04-25 02:59 326K
20260425T00Z_MSC_RDPS_WindV_IsbL-0030_RLatLon0.09_PT049H.grib2 2026-04-25 02:59 323K
20260425T00Z_MSC_RDPS_WindV_IsbL-0050_RLatLon0.09_PT049H.grib2 2026-04-25 02:59 354K
20260425T00Z_MSC_RDPS_WindV_IsbL-0100_RLatLon0.09_PT049H.grib2 2026-04-25 02:59 332K
20260425T00Z_MSC_RDPS_WindV_IsbL-0150_RLatLon0.09_PT049H.grib2 2026-04-25 02:59 392K
20260425T00Z_MSC_RDPS_WindV_IsbL-0175_RLatLon0.09_PT049H.grib2 2026-04-25 02:59 418K
20260425T00Z_MSC_RDPS_WindV_IsbL-0200_RLatLon0.09_PT049H.grib2 2026-04-25 02:59 434K
20260425T00Z_MSC_RDPS_WindV_IsbL-0225_RLatLon0.09_PT049H.grib2 2026-04-25 02:59 440K
20260425T00Z_MSC_RDPS_WindV_IsbL-0250_RLatLon0.09_PT049H.grib2 2026-04-25 02:59 343K
20260425T00Z_MSC_RDPS_WindV_IsbL-0275_RLatLon0.09_PT049H.grib2 2026-04-25 02:59 357K
20260425T00Z_MSC_RDPS_WindV_IsbL-0300_RLatLon0.09_PT049H.grib2 2026-04-25 02:59 351K
20260425T00Z_MSC_RDPS_WindV_IsbL-0350_RLatLon0.09_PT049H.grib2 2026-04-25 02:59 359K
20260425T00Z_MSC_RDPS_WindV_IsbL-0400_RLatLon0.09_PT049H.grib2 2026-04-25 02:59 363K
20260425T00Z_MSC_RDPS_WindV_IsbL-0450_RLatLon0.09_PT049H.grib2 2026-04-25 02:59 465K
20260425T00Z_MSC_RDPS_WindV_IsbL-0500_RLatLon0.09_PT049H.grib2 2026-04-25 02:59 466K
20260425T00Z_MSC_RDPS_WindV_IsbL-0550_RLatLon0.09_PT049H.grib2 2026-04-25 02:59 469K
20260425T00Z_MSC_RDPS_WindV_IsbL-0600_RLatLon0.09_PT049H.grib2 2026-04-25 02:59 479K
20260425T00Z_MSC_RDPS_WindV_IsbL-0650_RLatLon0.09_PT049H.grib2 2026-04-25 02:59 496K
20260425T00Z_MSC_RDPS_WindV_IsbL-0700_RLatLon0.09_PT049H.grib2 2026-04-25 02:59 498K
20260425T00Z_MSC_RDPS_WindV_IsbL-0750_RLatLon0.09_PT049H.grib2 2026-04-25 02:59 524K
20260425T00Z_MSC_RDPS_WindV_IsbL-0800_RLatLon0.09_PT049H.grib2 2026-04-25 02:59 566K
20260425T00Z_MSC_RDPS_WindV_IsbL-0850_RLatLon0.09_PT049H.grib2 2026-04-25 02:59 614K
20260425T00Z_MSC_RDPS_WindV_IsbL-0875_RLatLon0.09_PT049H.grib2 2026-04-25 02:59 632K
20260425T00Z_MSC_RDPS_WindV_IsbL-0900_RLatLon0.09_PT049H.grib2 2026-04-25 02:59 645K
20260425T00Z_MSC_RDPS_WindV_IsbL-0925_RLatLon0.09_PT049H.grib2 2026-04-25 02:59 652K
20260425T00Z_MSC_RDPS_WindV_IsbL-0950_RLatLon0.09_PT049H.grib2 2026-04-25 02:59 651K
20260425T00Z_MSC_RDPS_WindV_IsbL-0970_RLatLon0.09_PT049H.grib2 2026-04-25 02:59 650K
20260425T00Z_MSC_RDPS_WindV_IsbL-0985_RLatLon0.09_PT049H.grib2 2026-04-25 02:59 650K
20260425T00Z_MSC_RDPS_WindV_IsbL-1000_RLatLon0.09_PT049H.grib2 2026-04-25 02:59 645K
20260425T00Z_MSC_RDPS_WindV_IsbL-1015_RLatLon0.09_PT049H.grib2 2026-04-25 02:59 778K